www.pogodaiklimat.ru

Погода и климат >> Архив погоды >> Германия >> Ганновер


АРХИВ ПОГОДЫ в Ганновере

Время (UTC), дата Ветер
(напр.,м/с)
 
Видим.   Явления Облачность Т
(С)
Тd
(С)
f
(%)
Тe
(С)
Тes
(С)
Комфортность P
(гПа)
Po
(гПа)
Тmin
(С)
Tmax
(С)
R
(мм)
R24
(мм)
S
(см)
19 9.09 СЗ 4 10 км дождь 10/4 450 м
[Sc As op]
+13.6 +11.4 87 +12 +12 по сезону 1013.8 1006.7
20 9.09 З 2 12 км в посл. час дождь 10/9 270 м
[Sc]
+12.8 +12.0 95 +12 +12 по сезону 1013.9 1006.8
21 9.09 З 1 4500 м туман на расстоянии {дождь} 8/0
[Ac trans]
+12.1 +11.8 98 +12 +12 по сезону 1013.9 1006.8 2
22 9.09 З 2-3
{3}
7000 м туман поземный 3/3 960 м
[Sc]
+11.8 +11.2 96 +11 +11 тепло 1014.1 1006.9
23 9.09 З 2-3
{3}
10 км 1/1 1050 м
[Sc]
+10.7 +10.2 97 +9 +9 по сезону 1014.0 1006.8
00 10.09 З 2 12 км {дождь} 1/1 1000 м
[Sc]
+10.3 +9.6 95 +9 +9 по сезону 1014.1 1006.9 2
01 10.09 З 3-4
{4}
15 км ясно +9.1 +8.8 98 +6 +6 по сезону 1014.5 1007.3
02 10.09 З 2-4
{4}
17 км 1/1 1050 м
[Sc]
+8.5 +7.9 96 +6 +6 прохладно 1014.9 1007.6
03 10.09 З 2 15 км 1/1 1050 м
[Sc]
+8.3 +7.7 96 +6 +6 прохладно 1014.8 1007.5 0.1
04 10.09 З 2-4
{4}
15 км 3/0
[Ac trans]
+8.1 +7.4 95 +6 +6 по сезону 1015.1 1007.8
05 10.09 З 2-4
{4}
15 км 1/0
[Ac trans]
+9.1 +8.5 96 +7 +7 по сезону 1015.2 1008.0
06 10.09 З 3 25 км ясно +9.9 +8.6 92 +8 +8 по сезону 1015.6 1008.4 +7.5 +14.1 2
07 10.09 З 3-5
{6}
30 км 1/0
[Ci fib]
+11.8 +9.0 83 +10 +12 по сезону 1016.0 1008.8
08 10.09 З 5-7
{7}
40 км 1/0
[Ci fib]
+13.5 +9.4 76 +12 +14 по сезону 1016.4 1009.3
09 10.09 З 5 40 км 1/0
[Ci fib]
+15.5 +8.8 64 +14 +18 по сезону 1016.7 1009.6
10 10.09 З 6-9
{10}
40 км 3/3 1140 м
[Cu hum]
+16.6 +7.2 54 +16 +18 по сезону 1016.9 1009.8
11 10.09 З 6-9
{11}
40 км 3/3 1200 м
[Cu hum]
+17.6 +7.7 52 +17 +20 по сезону 1016.5 1009.5
12 10.09 З 7 40 км 5/5 1440 м
[Cu Sc]
+18.1 +6.4 46 +17 +19 по сезону 1016.7 1009.7
13 10.09 З 7 40 км 6/6 1500 м
[Cu Sc]
+18.3 +6.5 46 +18 +19 тепло 1016.8 1009.8
14 10.09 З 6 40 км 8/8 1500 м
[Cu Sc]
+18.5 +5.1 41 +18 +19 тепло 1017.0 1010.0
15 10.09 З 7 40 км 5/5 1500 м
[Cu Sc]
+18.4 +6.5 46 +18 +18 тепло 1017.2 1010.2
16 10.09 З 3-6
{9}
40 км 4/4 1500 м
[Cu Sc]
+18.3 +6.8 47 +19 +19 тепло 1017.5 1010.5
17 10.09 З 2-3
{7}
40 км 3/3 1500 м
[Cu Sc]
+17.3 +7.6 53 +18 +18 тепло 1018.0 1010.9
18 10.09 З 2 40 км 1/1 1500 м
[Sc]
+15.4 +7.8 60 +15 +15 по сезону 1018.4 1011.3 +10.0 +19.3
19 10.09 З 2-3
{3}
40 км 1/1 1500 м
[Sc]
+13.9 +7.8 67 +13 +13 тепло 1019.0 1011.9
20 10.09 З 2-3
{3}
40 км 1/0
[Ac trans]
+12.5 +8.2 75 +12 +12 по сезону 1019.4 1012.2
21 10.09 З 1 40 км 1/0
[Ac trans]
+10.7 +7.8 82 +10 +10 прохладно 1019.8 1012.6
22 10.09 З 1-2
{2}
40 км 3/0
[Ac trans]
+10.0 +7.9 87 +10 +10 по сезону 1020.3 1013.0
23 10.09 Ю 1-2
{2}
40 км 3/0
[Ac trans]
+10.0 +8.5 90 +9 +9 по сезону 1020.7 1013.4
00 11.09 Ю 1 40 км 1/0
[Ac trans]
+9.1 +8.1 93 +8 +8 прохладно 1020.7 1013.4
01 11.09 Ю 1-2
{2}
30 км 4/0
[Ac trans]
+9.1 +8.2 94 +8 +8 по сезону 1020.8 1013.5
02 11.09 Ю 2-2
{3}
30 км 4/0
[Ac trans]
+8.9 +8.0 94 +7 +7 по сезону 1021.0 1013.7
03 11.09 Ю 2 30 км 8/0
[Ac trans]
+8.8 +7.9 94 +7 +7 прохладно 1020.9 1013.6
04 11.09 Ю 3-4
{4}
30 км 3/0
[Ac trans]
+8.8 +7.0 88 +6 +6 по сезону 1020.7 1013.4
05 11.09 Ю 2-3
{4}
30 км местами туман поземный 3/0
[Ac trans Ci fib]
+8.8 +6.9 88 +7 +7 по сезону 1021.2 1013.9
06 11.09 Ю 3 30 км 1/0
[Ac trans Ci fib]
+10.0 +6.8 80 +8 +8 по сезону 1021.2 1013.9 +8.3 +15.8
07 11.09 Ю 3-4
{4}
35 км 6/5 1500 м
[Sc Ci fib]
+11.9 +7.5 74 +10 +11 по сезону 1021.3 1014.1
08 11.09 Ю 4-6
{6}
35 км 5/4 1500 м
[Sc Ci fib]
+15.1 +8.8 66 +14 +16 по сезону 1021.4 1014.3
09 11.09 ЮЗ 4 35 км 4/0
[Ci fib]
+17.3 +7.6 53 +17 +21 тепло 1021.5 1014.4
10 11.09 ЮЗ 6-9
{9}
30 км 6/0
[Ci fib]
+19.4 +8.5 49 +20 +23 тепло 1021.0 1014.0
11 11.09 ЮЗ 6 35 км 8/1 1500 м
[Cu hum Ac trans Ci fib]
+19.9 +7.2 44 +20 +22 тепло 1020.7 1013.7
12 11.09 ЮЗ 8 40 км 8/4 1500 м
[Sc diur, vesp Ci sp]
+20.7 +7.8 43 +21 +22 комфорт 1020.6 1013.6
13 11.09 ЮЗ 6 40 км 9/4 1500 м
[Sc diur, vesp Ci sp]
+21.3 +7.8 42 +22 +24 комфорт 1020.3 1013.3
14 11.09 ЮЗ 6 40 км 9/5 1500 м
[Sc Ci sp]
+20.5 +7.8 44 +21 +22 комфорт 1020.0 1013.0
15 11.09 ЮЗ 5 40 км 10/4 1500 м
[Sc Cs]
+20.2 +8.5 47 +21 +22 комфорт 1020.0 1013.0
16 11.09 З 5 20 км осадки на расстоянии 10/3 1500 м
[Sc Ac As]
+19.5 +8.9 50 +20 +20 тепло 1020.1 1013.1
17 11.09 З 3 18 км в посл. час дождь 10/1 1500 м
[Sc Ac As]
+16.3 +12.0 76 +16 +16 тепло 1020.9 1013.8
18 11.09 З 6 35 км слаб. дождь 10/0
[As op]
+15.2 +11.0 76 +14 +14 по сезону 1021.7 1014.6 +9.9 +21.6 0.5
19 11.09 ЮЗ 4-7
{10}
20 км слаб. дождь 10/0 800 м
[As op]
+13.6 +12.6 94 +12 +12 по сезону 1022.1 1014.9
20 11.09 ЮЗ 4 25 км в посл. час дождь 10/10 360 м
[Cu Sc]
+13.5 +12.0 91 +12 +12 по сезону 1022.2 1015.0
21 11.09 ЮЗ 4 40 км в посл. час дождь 10/9 450 м
[Cu Sc]
+13.8 +12.3 91 +12 +12 по сезону 1022.3 1015.1 2
22 11.09 ЮЗ 4-7
{8}
40 км в посл. час дождь {морось} 10/9 450 м
[Sc]
+14.3 +12.6 90 +13 +13 тепло 1022.5 1015.3
23 11.09 ЮЗ 4-6
{7}
40 км 9/9 450 м
[Sc]
+14.5 +12.9 90 +13 +13 тепло 1022.6 1015.5
00 12.09 ЮЗ 5 40 км {дождь, морось} 9/9 300 м
[Sc]
+14.9 +13.2 90 +13 +13 тепло 1022.7 1015.6 2
01 12.09 ЮЗ 4-7
{9}
40 км 10/9 300 м
[St]
+15.0 +13.4 90 +14 +14 тепло 1023.2 1016.1
02 12.09 ЮЗ 4-7
{7}
30 км 10/9 270 м
[St]
+15.2 +13.6 90 +14 +14 тепло 1023.6 1016.5
03 12.09 ЮЗ 3 9000 м слаб. морось 10/9 270 м
[St]
+14.8 +14.0 95 +14 +14 тепло 1023.6 1016.5 0.0
04 12.09 ЮЗ 3-4
{5}
9000 м в посл. час морось 10/9 270 м
[St]
+14.8 +14.0 95 +14 +14 тепло 1024.0 1016.9
05 12.09 ЮЗ 3-5
{5}
12 км 10/9 270 м
[St]
+15.1 +14.2 94 +14 +14 тепло 1024.5 1017.4
06 12.09 ЮЗ 3 9000 м {морось} 10/10 200 м
[St]
+15.5 +14.7 95 +15 +15 тепло 1025.0 1017.9 +13.4 +15.5 2
07 12.09 ЮЗ 3-4
{4}
9000 м 10/10 210 м
[St]
+16.0 +15.0 94 +15 +15 тепло 1025.7 1018.6
08 12.09 Ю 3-5
{5}
11 км в посл. час морось 10/10 240 м
[St]
+16.7 +15.3 91 +16 +16 тепло 1026.0 1018.9
09 12.09 ЮЗ 3 11 км {морось} 10/10 330 м
[Sc]
+17.4 +15.4 88 +17 +17 тепло 1026.5 1019.4 0.0
10 12.09 З 5-9
{9}
17 км 9/9 420 м
[Sc]
+18.7 +15.4 81 +19 +20 тепло 1027.0 1019.9
11 12.09 ЮЗ 6-9
{9}
25 км 6/6 630 м
[Cu med, cong Ci fib]
+19.7 +14.8 73 +21 +23 комфорт 1026.8 1019.8
12 12.09 ЮЗ 6 25 км {морось} 6/5 720 м
[Cu Sc Ci fib]
+22.0 +16.1 69 +26 +28 душно 1026.6 1019.6
13 12.09 ЮЗ 7 25 км 8/5 900 м
[Cu Sc Ci fib]
+21.8 +14.5 63 +25 +26 комфорт 1026.7 1019.7
14 12.09 З 5 30 км 8/5 960 м
[Cu Sc Ci fib]
+21.4 +14.1 63 +24 +25 комфорт 1026.6 1019.6
15 12.09 З 5 30 км 8/5 1050 м
[Cu Sc Ci fib]
+21.3 +13.9 63 +24 +25 комфорт 1026.4 1019.4
16 12.09 З 5 30 км 8/8 1050 м
[Cu Sc Ci fib]
+20.8 +14.6 68 +24 +24 комфорт 1026.5 1019.5
17 12.09 З 2-4
{6}
30 км 3/1 1500 м
[Sc Ci fib]
+20.6 +14.7 69 +24 +24 комфорт 1026.5 1019.5
18 12.09 ЮЗ 1 30 км 1/1 1000 м
[Sc]
+19.0 +14.7 76 +21 +21 комфорт 1026.8 1019.7 +15.5 +22.7
19 12.09 Ю 2-3
{3}
27 км 1/1 1110 м
[Sc]
+18.4 +14.8 80 +19 +19 тепло 1027.0 1019.9
20 12.09 ЮЗ 2-3
{4}
30 км 1/1 1050 м
[Sc]
+17.7 +13.6 77 +18 +18 тепло 1027.2 1020.1
21 12.09 ЮЗ 2 30 км 4/4 1170 м
[Sc]
+16.8 +12.7 77 +17 +17 тепло 1027.1 1020.0
22 12.09 З 2-4
{4}
30 км 9/9 1500 м
[Sc]
+17.2 +12.9 76 +18 +18 тепло 1027.1 1020.0
23 12.09 З 3-4
{5}
30 км 9/9 1410 м
[Sc]
+17.6 +13.2 75 +18 +18 тепло 1027.1 1020.0
00 13.09 ЮЗ 3 30 км 9/9 1500 м
[Sc]
+18.0 +13.4 74 +18 +18 тепло 1026.8 1019.7
01 13.09 З 4-6
{7}
35 км 9/9 960 м
[Sc]
+18.5 +13.8 74 +19 +19 тепло 1026.6 1019.5
02 13.09 ЮЗ 3-5
{5}
35 км 6/6 1140 м
[Sc]
+17.5 +13.5 77 +18 +18 тепло 1026.3 1019.2
03 13.09 ЮЗ 4 35 км 5/5 1500 м
[Sc]
+17.6 +13.5 77 +17 +17 тепло 1026.1 1019.0
04 13.09 З 4-7
{7}
35 км 10/9 660 м
[Sc]
+17.9 +14.1 78 +18 +18 тепло 1026.4 1019.3
05 13.09 З 5-7
{9}
25 км 10/10 480 м
[Sc]
+18.0 +14.6 81 +18 +18 тепло 1026.8 1019.7
06 13.09 З 4 25 км 10/10 300 м
[Sc]
+18.0 +15.1 83 +18 +18 тепло 1027.4 1020.3 +16.3 +19.1
07 13.09 З 5-9
{9}
20 км 10/9 480 м
[Sc]
+18.2 +15.2 83 +18 +18 тепло 1027.8 1020.7
08 13.09 З 4 8000 м дождь 10/9 360 м
[Sc]
+17.9 +15.5 86 +18 +18 тепло 1028.4 1021.3
09 13.09 З 5 8000 м дождь 10/9 300 м
[Sc]
+18.3 +15.7 85 +18 +19 тепло 1029.0 1021.9 0.0
10 13.09 С 7 25 км в посл. час дождь 8/8 420 м
[Cu Sc Ci fib]
+17.9 +14.0 78 +17 +18 по сезону 1029.8 1022.7
11 13.09 СЗ 6 30 км 9/8 840 м
[Cu Sc Ci fib]
+19.7 +12.5 63 +21 +22 комфорт 1030.2 1023.1
12 13.09 СЗ 5 45 км {дождь} 9/5 900 м
[Cu Sc Ci sp]
+20.0 +11.6 58 +21 +23 комфорт 1030.8 1023.7 0.0
13 13.09 СЗ 5 45 км 9/3 1050 м
[Cu Sc Ci sp]
+20.3 +10.9 55 +22 +24 комфорт 1031.0 1023.9
14 13.09 СЗ 6 45 км 9/3 1200 м
[Cu med, cong Ci sp]
+19.7 +9.4 51 +20 +22 тепло 1031.4 1024.3
15 13.09 СЗ 7 45 км 9/3 1350 м
[Cu med, cong Ci sp]
+19.3 +8.7 50 +20 +20 тепло 1032.0 1024.9
16 13.09 СЗ 7 45 км 9/1 1500 м
[Cu hum Ci sp]
+17.9 +8.0 52 +17 +17 тепло 1032.3 1025.2
17 13.09 СЗ 4 45 км 9/1 1500 м
[Cu hum Ci sp]
+16.9 +7.2 53 +16 +17 тепло 1032.7 1025.5
18 13.09 СЗ 3 45 км 8/0
[Ac trans Ci sp]
+14.8 +7.0 60 +14 +14 по сезону 1033.5 1026.3 +14.8 +20.7
19 13.09 СЗ 3 45 км 8/0
[Ac trans Ci sp]
+13.7 +7.2 65 +13 +13 тепло 1034.3 1027.0
20 13.09 СЗ 2 40 км 6/0
[Ac trans Ci sp]
+11.6 +7.3 75 +11 +11 по сезону 1034.6 1027.3
21 13.09 СЗ 2 40 км 8/0
[Ac trans Ci fib]
+10.4 +6.7 78 +9 +9 прохладно 1035.1 1027.7
22 13.09 З 1 40 км 8/0
[Ac trans Ci fib]
+9.1 +6.6 84 +8 +8 по сезону 1035.4 1028.0
23 13.09 З 2 35 км 6/0
[Ac trans Ci fib]
+7.7 +6.3 91 +6 +6 прохладно 1035.5 1028.1
00 14.09 ЮЗ 1 35 км 5/0
[Ac trans Ci fib]
+6.8 +5.8 93 +6 +6 прохладно 1035.8 1028.3
01 14.09 ЮЗ 1 35 км местами туман поземный 5/0
[Ac trans Ci fib]
+6.9 +6.7 99 +6 +6 по сезону 1035.4 1028.0
02 14.09 З 1 30 км туман на расстоянии 4/0
[Ac trans Ci fib]
+6.1 +5.9 99 +5 +5 прохладно 1035.5 1028.0
03 14.09 СЗ 1 30 км туман на расстоянии 3/0
[Ci fib]
+5.8 +5.6 99 +4 +4 холодно 1035.5 1028.0
04 14.09 ЮЗ 1-1
{1}
20 км туман на расстоянии 4/0
[Ci fib]
+4.8 +4.7 99 +3 +3 прохладно 1035.6 1028.1
05 14.09 ЮЗ 1 15 км туман на расстоянии 4/0
[Ac trans Ci fib]
+5.0 +5.0 100 +3 +3 прохладно 1035.5 1028.0
06 14.09 ЮЗ 1 25 км 4/0
[Ac trans Ci fib]
+5.5 +4.7 95 +4 +5 холодно 1035.7 1028.2 +4.3 +15.2
07 14.09 штиль 0 30 км 4/1 1020 м
[Cu hum Ci fib]
+10.4 +7.6 83 +10 +12 по сезону 1035.6 1028.2
08 14.09 ЮЗ 1-2
{2}
35 км 4/0
[Ci sp]
+13.0 +8.5 74 +13 +17 по сезону 1035.8 1028.5
09 14.09 Ю 2 35 км 6/1 840 м
[Cu hum Ci sp]
+15.0 +8.2 64 +15 +20 по сезону 1035.5 1028.3
10 14.09 Ю 2 40 км 8/4 960 м
[Cu hum Ci fib]
+16.9 +7.6 54 +17 +21 по сезону 1035.2 1028.0
11 14.09 В 2 40 км 8/4 1140 м
[Cu hum Ci fib]
+16.7 +7.3 54 +17 +22 по сезону 1034.3 1027.1
12 14.09 З 2 40 км 6/3 1320 м
[Cu hum Ci fib]
+18.0 +6.3 46 +19 +24 тепло 1033.8 1026.6
13 14.09 ЮВ 2 40 км 5/1 1440 м
[Cu hum Ci fib]
+19.2 +6.2 43 +20 +26 тепло 1033.0 1025.9
14 14.09 ЮЗ 1 40 км 8/1 1500 м
[Cu hum Ci fib]
+18.9 +5.9 43 +20 +25 тепло 1032.3 1025.2
15 14.09 С 1 40 км 8/0
[Ci sp]
+18.3 +5.2 42 +20 +23 тепло 1031.4 1024.3
16 14.09 СЗ 2-3
{3}
40 км 8/0
[Ci sp]
+18.5 +5.2 42 +19 +20 тепло 1030.7 1023.6
17 14.09 С 1-2
{3}
40 км 6/0
[Ci sp]
+17.7 +5.8 46 +19 +19 тепло 1030.3 1023.2
18 14.09 СВ 1 40 км 5/0
[Ci fib]
+14.2 +6.8 61 +15 +15 по сезону 1030.2 1023.0 +5.6 +19.2
19 14.09 штиль 0-1
{2}
40 км 4/0
[Ci fib]
+12.7 +6.8 67 +12 +12 по сезону 1029.8 1022.5
20 14.09 СВ 1-1
{2}
40 км 4/0
[Ci fib]
+10.3 +6.9 79 +10 +10 по сезону 1029.7 1022.4
21 14.09 штиль 0 40 км 1/0
[Ci fib]
+9.5 +6.8 83 +9 +9 прохладно 1028.9 1021.6
22 14.09 Ю 1-1
{2}
40 км ясно +8.7 +6.7 87 +8 +8 по сезону 1028.1 1020.8
23 14.09 штиль 0-1
{2}
40 км ясно +10.4 +6.6 77 +10 +10 по сезону 1027.0 1019.7
00 15.09 В 1 30 км ясно +8.0 +5.8 86 +7 +7 прохладно 1026.4 1019.0
01 15.09 Ю 1-2
{2}
30 км ясно +8.4 +6.2 86 +8 +8 по сезону 1025.5 1018.2
02 15.09 Ю 2-3
{3}
30 км ясно +7.5 +6.1 91 +5 +5 прохладно 1024.8 1017.4
03 15.09 З 1-1
{3}
30 км ясно +5.6 +4.1 90 +4 +4 холодно 1024.1 1016.7
04 15.09 ЮЗ 1-1
{2}
30 км 6/0
[Ci sp]
+5.6 +4.7 94 +4 +4 по сезону 1023.5 1016.1
05 15.09 З 1-1
{2}
30 км местами туман поземный 6/0
[Ci sp]
+6.3 +5.3 93 +5 +5 прохладно 1023.1 1015.7
06 15.09 ЮЗ 1 30 км 8/0
[Ci sp]
+7.8 +5.3 84 +7 +7 прохладно 1022.8 1015.5 +5.1 +14.5
07 15.09 ЮЗ 3-4
{4}
35 км 9/0
[Ci sp]
+12.9 +7.9 72 +12 +13 по сезону 1022.3 1015.1
08 15.09 З 4-7
{7}
35 км 9/0
[Ci sp]
+16.7 +7.8 56 +16 +18 тепло 1022.2 1015.1
09 15.09 З 7 35 км 9/0
[Ci sp]
+17.9 +7.9 52 +17 +18 тепло 1021.9 1014.8
10 15.09 З 5-7
{12}
35 км 9/0
[Ci sp]
+18.9 +8.1 49 +19 +22 тепло 1021.5 1014.5
11 15.09 З 6-9
{11}
35 км 8/0
[Ci sp]
+20.6 +8.0 44 +22 +25 комфорт 1021.1 1014.1
12 15.09 З 8 40 км 8/0
[Ac trans Ci sp]
+21.7 +6.0 36 +22 +23 комфорт 1020.6 1013.6
13 15.09 З 7 40 км 8/0
[Ac trans Ci sp]
+22.5 +3.8 29 +22 +24 комфорт 1019.8 1012.8
14 15.09 З 8 45 км 6/0
[Ac lent Ci sp]
+23.5 +5.4 31 +23 +24 комфорт 1019.3 1012.4
15 15.09 З 9 45 км 9/5 1500 м
[Sc Ci sp]
+23.3 +7.2 35 +24 +24 комфорт 1019.1 1012.2
16 15.09 З 5-8
{12}
45 км 9/9 1440 м
[Sc]
+21.8 +9.3 45 +23 +23 комфорт 1019.1 1012.1
17 15.09 СЗ 8 45 км 9/9 1170 м
[Cu Sc]
+20.4 +13.0 62 +22 +22 комфорт 1019.4 1012.4
18 15.09 СЗ 6 4500 м слаб. морось 10/10 200 м
[Sc]
+16.2 +15.6 96 +15 +15 по сезону 1020.3 1013.2 +7.8 +23.8 0.1
19 15.09 СЗ 4 12 км слаб. морось 10/9 210 м
[Cu Sc]
+15.1 +14.4 96 +14 +14 тепло 1020.5 1013.4
20 15.09 З 4 18 км в посл. час морось 10/9 330 м
[Cu Sc]
+15.0 +14.3 96 +14 +14 тепло 1020.6 1013.5
21 15.09 З 3 30 км {морось} 9/9 900 м
[Sc]
+14.6 +12.7 88 +14 +14 по сезону 1020.9 1013.8 0.4
22 15.09 З 2-3
{5}
30 км 10/9 750 м
[Sc]
+13.8 +11.9 88 +13 +13 тепло 1021.1 1013.9
23 15.09 З 2-3
{3}
30 км 9/9 1140 м
[Sc]
+13.5 +11.6 88 +13 +13 тепло 1021.3 1014.1
00 16.09 З 3 н/о н/о +13.3 +11.2 87 +12 +12 по сезону 1021.2 1014.0
01 16.09 З 2-3
{3}
30 км 9/0
[Ac trans]
+13.2 +11.1 87 +12 +12 тепло 1021.1 1013.9
02 16.09 З 2-3
{4}
25 км 9/9 1500 м
[Sc]
+13.3 +11.1 87 +13 +13 тепло 1020.7 1013.5
03 16.09 З 2 30 км слаб. дождь 9/9 1500 м
[Sc]
+12.7 +11.4 92 +12 +12 по сезону 1020.9 1013.7 0.1
04 16.09 ЮЗ 2-3
{4}
15 км слаб. дождь 10/0 1440 м
[As op]
+12.3 +11.4 94 +11 +11 тепло 1020.5 1013.3
05 16.09 З 3 15 км слаб. дождь 10/5 360 м
[Sc As op]
+11.5 +10.3 92 +10 +10 по сезону 1020.5 1013.3
06 16.09 ЮЗ 2 20 км слаб. дождь 10/3 300 м
[Sc As op]
+10.7 +9.5 92 +9 +9 по сезону 1020.3 1013.1 +10.7 +16.2 3
07 16.09 ЮЗ 1 16 км слаб. дождь 10/3 420 м
[Sc As op]
+11.1 +9.9 92 +11 +11 по сезону 1020.3 1013.1
08 16.09 ЮЗ 3 11 км слаб. дождь 10/5 750 м
[Sc As op]
+11.6 +10.2 91 +10 +10 по сезону 1020.5 1013.3
09 16.09 З 2 7000 м дождь 10/5 210 м
[Frnb As op]
+12.0 +11.0 94 +11 +11 по сезону 1020.5 1013.3 1
10 16.09 З 3 6000 м дождь 10/8 180 м
[Frnb As op]
+11.8 +10.7 93 +10 +10 холодно 1020.5 1013.3
11 16.09 З 3 25 км в посл. час дождь 10/9 210 м
[Cu Sc]
+12.6 +11.1 91 +11 +11 холодно 1020.2 1013.0
12 16.09 З 2 40 км в посл. час дождь 9/9 270 м
[Cu Sc]
+13.3 +10.6 84 +13 +13 прохладно 1019.7 1012.5 0.5
13 16.09 З 3 35 км в посл. час дождь 9/9 400 м
[Cu Sc]
+13.9 +10.8 82 +13 +13 по сезону 1019.3 1012.2
14 16.09 З 3 30 км 9/9 420 м
[Cu Sc]
+14.1 +10.7 80 +13 +13 по сезону 1019.1 1012.0
15 16.09 З 3 35 км {дождь} 9/9 450 м
[Cu Sc]
+14.3 +10.9 80 +13 +14 прохладно 1018.9 1011.8 0.0
16 16.09 З 5 35 км 9/5 500 м
[Cu Sc Ac trans Ci sp]
+14.6 +10.7 77 +13 +13 по сезону 1018.8 1011.7
17 16.09 З 2 35 км 9/9 540 м
[Cu Sc]
+14.1 +10.8 81 +14 +14 по сезону 1018.7 1011.6
18 16.09 З 3 30 км в посл. час дождь 9/6 300 м
[Cu Sc Ac trans Ci fib]
+13.6 +10.9 84 +12 +12 прохладно 1018.8 1011.7 +10.7 +14.9 0.0
19 16.09 З 2 25 км 8/1 600 м
[Sc Ac trans Ci fib]
+12.6 +11.0 90 +12 +12 тепло 1019.2 1012.0

 

Местоположение метеостанции Ганновер (Германия): широта 52.47 долгота 9.70 высота над уровнем моря 55 м.

В архиве по умолчанию представлена погода в Ганновере за последнюю неделю. Архивные данные за месяц целиком и за предыдущие месяцы, начиная с января 2011 года, Вы можете получить, выбрав интересующий диапазон дат из раскрывающегося списка и нажав кнопку "Ввод!".


*Определитесь, кто Вы:
робот инопланетянин человек

Внимание! Время в таблицах - всемирное. Для получения местного времени необходимо прибавить поправку, которая равна 1 ч.

Смотрите также архив погоды в соседних городах и на ближайших метеорологических станциях:

Погода в Вунсторфе (Германия) (18 км)
Погода в Целле (Германия) (26 км)
Погода в Бергене (Германия) (42 км)
Погода в Бюккебурге (Германия) (47 км)
Погода в Брауншвейге (Германия) (54 км)
Погода в Альфельде (Германия) (56 км)
Погода в Солтау (Германия) (60 км)
Погода в Фасберге (Германия) (60 км)
Погода в Лугде-Паенбрухе (Германия) (73 км)
Погода в Бад-Зальцуфлене (Германия) (77 км)

Пояснения к столбцам:

Ветер - указаны скорость ветра в м/с - средняя за 10 мин, порывы в срок и между сроками (в фигурных скобках) и направление, откуда дует ветер: С - северный, СВ - северо-восточный, В - восточный, ЮВ - юго-восточный, Ю - южный, ЮЗ - юго-западный, З - западный, СЗ - северо-западный.
Видимость - горизонтальная дальность видимости в метрах или километрах. При видимости от 1 до 10 км при отсутствии осадков обычно наблюдается дымка, при ухудшении видимости до 1 км и менее - туман. В сухую погоду видимость может ухудшаться дымом, пылью или мглою.
Явления - указаны атмосферные явления, наблюдавшиеся в срок или в последний час перед сроком; фигурными скобками обозначены явления, наблюдавшиеся между сроками (за 1-3 часа до срока); квадратными скобками обозначены град или гололедные отложения с указанием их диаметра в мм.
Облачность - указаны через наклонную черту общая и нижняя облачность в баллах и высота нижней границы облаков в метрах; квадратными скобками обозначены формы облаков: Ci - перистые, Cs - перисто-слоистые, Cc - перисто-кучевые, Ac - высококучевые, As - высокослоистые, Sc - слоисто-кучевые, Ns - слоисто-дождевые, Cu - кучевые, Cb - кучево-дождевые. Подробнее классификацию облаков см. в Атласе облаков (PDF).
T - Температура воздуха - температура, измеренная на высоте 2 м над землей.
Td - Температура точки росы - температура, при понижении до которой содержащийся в воздухе водяной пар достигнет насыщения.
f - Относительная влажность воздуха - влажноcть воздуха, измеренная на высоте 2 м над землей.
Te - Эффективная температура - температура, которую ощущает одетый по сезону человек в тени. Характеристика душности погоды. При расчете учитывается влияние влажности воздуха и скорости ветра на теплоощущения человека.
Tes - Эффективная температура на солнце - температура, которую ощущает человек, с поправкой на солнечный нагрев. Характеристика знойности погоды. Зависит от высоты солнца над горизонтом, облачности и скорости ветра. Ночью, в пасмурную погоду, а также при ветре 12 м/с и более поправка равна нулю.
P - Атмосферное давление - приведенное к уровню моря атмосферное давление.
Po - Атмосферное давление - измеренное на уровне метеостанции атмосферное давление.
Tmin - Минимальная температура - минимум температуры воздуха на высоте 2 м над землей.
Tmax - Максимальная температура - максимум температуры воздуха на высоте 2 м над землей.
R - Количество осадков - Количество выпавших осадков за период времени, мм. При наведении курсора мыши на число - период времени, за который выпало указанное количество осадков.
R24 - Количество осадков - Количество выпавших осадков за 24 часа, мм.
S - Снежный покров - Высота снежного покрова, см. При наведении курсора мыши на число - состояние снежного покрова и степень покрытия местности в баллах.